Time,TemperatureF,DewpointF,PressureIn,WindDirection,WindDirectionDegrees,WindSpeedMPH,WindSpeedGustMPH,Humidity,HourlyPrecipIn,Conditions,Clouds,dailyrainin,SoftwareType,DateUTC
2013-06-29 00:30:00,66.0,65.0,28.88,North,0,0.0,0.0,96,0.00,,,0.00,,2013-06-29 04:30:00,
2013-06-29 00:32:00,66.0,64.0,28.88,North,0,0.0,0.0,93,0.00,,,0.00,,2013-06-29 04:32:00,
2013-06-29 00:41:00,66.0,64.0,28.88,North,0,0.0,0.0,93,0.00,,,0.00,,2013-06-29 04:41:00,
2013-06-29 00:51:00,66.0,65.0,28.88,North,0,0.0,0.0,96,0.00,,,0.00,,2013-06-29 04:51:00,
2013-06-29 01:01:00,66.0,65.0,28.88,North,0,0.0,0.0,96,0.00,,,0.00,,2013-06-29 05:01:00,
2013-06-29 01:11:00,66.0,65.0,28.88,North,0,0.0,0.0,96,0.00,,,0.00,,2013-06-29 05:11:00,
2013-06-29 01:21:00,66.0,65.0,28.88,North,0,0.0,0.0,96,0.00,,,0.00,,2013-06-29 05:21:00,
2013-06-29 01:52:00,67.0,66.0,28.88,North,0,0.0,0.0,96,0.00,,,0.00,,2013-06-29 05:52:00,
2013-06-29 02:01:00,66.0,65.0,28.88,North,0,0.0,0.0,95,0.00,,,0.00,,2013-06-29 06:01:00,
2013-06-29 02:12:00,66.0,65.0,28.85,North,0,0.0,0.0,95,0.00,,,0.00,,2013-06-29 06:12:00,
2013-06-29 02:33:00,66.0,65.0,28.85,North,0,0.0,0.0,96,0.00,,,0.00,,2013-06-29 06:33:00,
2013-06-29 02:43:00,66.0,65.0,28.85,North,0,0.0,0.0,96,0.00,,,0.00,,2013-06-29 06:43:00,
2013-06-29 02:53:00,66.0,65.0,28.85,North,0,0.0,0.0,96,0.00,,,0.00,,2013-06-29 06:53:00,
2013-06-29 03:02:00,65.0,64.0,28.85,North,0,0.0,0.0,97,0.00,,,0.00,,2013-06-29 07:02:00,
2013-06-29 03:12:00,65.0,64.0,28.85,North,0,0.0,0.0,97,0.00,,,0.00,,2013-06-29 07:12:00,
2013-06-29 03:43:00,65.0,64.0,28.85,North,0,0.0,0.0,97,0.00,,,0.00,,2013-06-29 07:43:00,
2013-06-29 03:53:00,65.0,64.0,28.85,North,0,0.0,0.0,97,0.00,,,0.00,,2013-06-29 07:53:00,
2013-06-29 04:01:00,65.0,64.0,28.85,North,0,0.0,0.0,97,0.00,,,0.00,,2013-06-29 08:01:00,
2013-06-29 04:12:00,65.0,64.0,28.85,North,0,0.0,0.0,97,0.00,,,0.00,,2013-06-29 08:12:00,
2013-06-29 04:22:00,65.0,64.0,28.85,North,0,0.0,0.0,97,0.00,,,0.00,,2013-06-29 08:22:00,
2013-06-29 04:33:00,65.0,64.0,28.85,North,0,0.0,0.0,97,0.00,,,0.00,,2013-06-29 08:33:00,
2013-06-29 04:43:00,65.0,64.0,28.85,North,0,0.0,0.0,97,0.00,,,0.00,,2013-06-29 08:43:00,
2013-06-29 04:52:00,65.0,64.0,28.85,North,0,0.0,0.0,97,0.00,,,0.00,,2013-06-29 08:52:00,
2013-06-29 05:02:00,66.0,65.0,28.85,North,0,0.0,0.0,97,0.00,,,0.00,,2013-06-29 09:02:00,
2013-06-29 05:12:00,66.0,65.0,28.85,North,0,0.0,0.0,97,0.00,,,0.00,,2013-06-29 09:12:00,
2013-06-29 05:33:00,66.0,65.0,28.85,North,0,0.0,0.0,97,0.00,,,0.00,,2013-06-29 09:33:00,
2013-06-29 05:42:00,66.0,65.0,28.85,North,0,0.0,0.0,97,0.00,,,0.00,,2013-06-29 09:42:00,
2013-06-29 05:53:00,66.0,65.0,28.88,North,0,0.0,0.0,97,0.00,,,0.00,,2013-06-29 09:53:00,
2013-06-29 06:01:00,66.0,65.0,28.88,North,0,0.0,0.0,97,0.00,,,0.00,,2013-06-29 10:01:00,
2013-06-29 06:11:00,66.0,65.0,28.88,North,0,0.0,0.0,97,0.00,,,0.00,,2013-06-29 10:11:00,
2013-06-29 06:22:00,66.0,65.0,28.88,North,0,0.0,0.0,97,0.00,,,0.00,,2013-06-29 10:22:00,
2013-06-29 06:33:00,66.0,65.0,28.88,North,0,0.0,0.0,97,0.00,,,0.00,,2013-06-29 10:33:00,
2013-06-29 06:43:00,65.0,64.0,28.88,North,0,0.0,0.0,97,0.00,,,0.00,,2013-06-29 10:43:00,
2013-06-29 06:53:00,65.0,64.0,28.88,North,0,0.0,0.0,97,0.00,,,0.00,,2013-06-29 10:53:00,
2013-06-29 07:02:00,65.0,64.0,28.88,North,0,0.0,0.0,97,0.00,,,0.00,,2013-06-29 11:02:00,
2013-06-29 07:11:00,65.0,64.0,28.88,North,0,0.0,0.0,97,0.00,,,0.00,,2013-06-29 11:11:00,
2013-06-29 07:23:00,65.0,64.0,28.88,North,0,0.0,0.0,97,0.00,,,0.00,,2013-06-29 11:23:00,
2013-06-29 07:33:00,65.0,64.0,28.88,North,0,0.0,0.0,97,0.00,,,0.00,,2013-06-29 11:33:00,
2013-06-29 07:43:00,65.0,64.0,28.88,North,0,0.0,0.0,97,0.00,,,0.00,,2013-06-29 11:43:00,
2013-06-29 07:53:00,66.0,65.0,28.88,North,0,0.0,0.0,97,0.00,,,0.00,,2013-06-29 11:53:00,
2013-06-29 08:02:00,66.0,65.0,28.88,North,0,0.0,0.0,97,0.00,,,0.00,,2013-06-29 12:02:00,
2013-06-29 11:53:00,86.0,58.0,28.88,North,0,0.0,3.0,39,0.00,,,0.00,,2013-06-29 15:53:00,
2013-06-29 12:02:00,87.0,59.0,28.88,North,0,0.0,4.0,39,0.00,,,0.00,,2013-06-29 16:02:00,
2013-06-29 12:33:00,87.0,58.0,28.88,North,0,0.0,4.0,37,0.00,,,0.00,,2013-06-29 16:33:00,
2013-06-29 13:34:00,85.0,58.0,28.88,North,0,0.0,0.0,40,0.00,,,0.00,,2013-06-29 17:34:00,
2013-06-29 13:42:00,85.0,58.0,28.88,North,0,0.0,0.0,40,0.00,,,0.00,,2013-06-29 17:42:00,
2013-06-29 13:52:00,83.0,55.0,28.88,North,0,0.0,0.0,39,0.00,,,0.00,,2013-06-29 17:52:00,
2013-06-29 14:02:00,81.0,56.0,28.88,North,0,0.0,0.0,42,0.00,,,0.00,,2013-06-29 18:02:00,
2013-06-29 14:12:00,83.0,59.0,28.88,North,0,0.0,0.0,44,0.00,,,0.00,,2013-06-29 18:12:00,
2013-06-29 14:22:00,85.0,59.0,28.88,North,0,0.0,0.0,41,0.00,,,0.00,,2013-06-29 18:22:00,
2013-06-29 14:34:00,85.0,59.0,28.88,North,0,0.0,0.0,41,0.00,,,0.00,,2013-06-29 18:34:00,
2013-06-29 14:43:00,87.0,58.0,28.85,North,0,0.0,0.0,38,0.00,,,0.00,,2013-06-29 18:43:00,
2013-06-29 14:53:00,87.0,60.0,28.85,North,0,0.0,0.0,41,0.00,,,0.00,,2013-06-29 18:53:00,
2013-06-29 15:01:00,87.0,60.0,28.85,North,0,0.0,0.0,41,0.00,,,0.00,,2013-06-29 19:01:00,
2013-06-29 15:12:00,88.0,55.0,28.85,ENE,69,7.0,10.0,33,0.00,,,0.00,,2013-06-29 19:12:00,
2013-06-29 16:02:00,83.0,55.0,28.85,North,0,0.0,0.0,39,0.00,,,0.00,,2013-06-29 20:02:00,
2013-06-29 16:12:00,83.0,55.0,28.85,North,0,0.0,0.0,39,0.00,,,0.00,,2013-06-29 20:12:00,
2013-06-29 16:23:00,83.0,59.0,28.85,North,0,0.0,0.0,45,0.00,,,0.00,,2013-06-29 20:23:00,
2013-06-29 16:33:00,83.0,59.0,28.85,North,0,0.0,0.0,45,0.00,,,0.00,,2013-06-29 20:33:00,
2013-06-29 16:43:00,83.0,59.0,28.85,North,0,0.0,0.0,45,0.00,,,0.00,,2013-06-29 20:43:00,
2013-06-29 16:52:00,84.0,56.0,28.85,North,0,0.0,0.0,39,0.00,,,0.00,,2013-06-29 20:52:00,
2013-06-29 17:02:00,84.0,57.0,28.85,ENE,57,4.0,5.0,40,0.00,,,0.00,,2013-06-29 21:02:00,
2013-06-29 17:11:00,85.0,57.0,28.85,ENE,62,4.0,7.0,39,0.00,,,0.00,,2013-06-29 21:11:00,
2013-06-29 17:22:00,85.0,58.0,28.85,North,0,0.0,7.0,40,0.00,,,0.00,,2013-06-29 21:22:00,
2013-06-29 17:32:00,85.0,58.0,28.85,North,0,0.0,7.0,40,0.00,,,0.00,,2013-06-29 21:32:00,
2013-06-29 17:42:00,85.0,58.0,28.85,North,0,0.0,7.0,40,0.00,,,0.00,,2013-06-29 21:42:00,
2013-06-29 17:52:00,84.0,57.0,28.85,North,0,0.0,6.0,40,0.00,,,0.00,,2013-06-29 21:52:00,
2013-06-29 18:01:00,84.0,57.0,28.85,North,0,0.0,6.0,40,0.00,,,0.00,,2013-06-29 22:01:00,
2013-06-29 18:11:00,83.0,55.0,28.82,North,0,0.0,0.0,38,0.00,,,0.00,,2013-06-29 22:11:00,
2013-06-29 18:22:00,83.0,57.0,28.82,North,0,0.0,0.0,41,0.00,,,0.00,,2013-06-29 22:22:00,
2013-06-29 18:33:00,83.0,57.0,28.82,North,0,0.0,0.0,41,0.00,,,0.00,,2013-06-29 22:33:00,
2013-06-29 18:43:00,82.0,55.0,28.82,ENE,68,5.0,7.0,39,0.00,,,0.00,,2013-06-29 22:43:00,
2013-06-29 18:53:00,81.0,54.0,28.82,North,0,0.0,5.0,39,0.00,,,0.00,,2013-06-29 22:53:00,
2013-06-29 19:02:00,81.0,54.0,28.82,North,0,0.0,6.0,40,0.00,,,0.00,,2013-06-29 23:02:00,
2013-06-29 19:12:00,80.0,55.0,28.82,North,0,0.0,3.0,42,0.00,,,0.00,,2013-06-29 23:12:00,
2013-06-29 19:23:00,79.0,55.0,28.82,North,0,0.0,0.0,44,0.00,,,0.00,,2013-06-29 23:23:00,
2013-06-29 19:34:00,78.0,57.0,28.82,North,0,0.0,4.0,48,0.00,,,0.00,,2013-06-29 23:34:00,
2013-06-29 19:52:00,78.0,58.0,28.82,North,0,0.0,0.0,51,0.00,,,0.00,,2013-06-29 23:52:00,
2013-06-29 20:02:00,77.0,61.0,28.82,North,0,0.0,0.0,57,0.00,,,0.00,,2013-06-30 00:02:00,
2013-06-29 20:12:00,77.0,61.0,28.82,North,0,0.0,0.0,57,0.00,,,0.00,,2013-06-30 00:12:00,
2013-06-29 20:22:00,76.0,63.0,28.82,North,0,0.0,0.0,65,0.00,,,0.00,,2013-06-30 00:22:00,
2013-06-29 20:33:00,75.0,63.0,28.82,North,0,0.0,0.0,67,0.00,,,0.00,,2013-06-30 00:33:00,
2013-06-29 20:43:00,74.0,63.0,28.82,North,0,0.0,0.0,68,0.00,,,0.00,,2013-06-30 00:43:00,
2013-06-29 20:52:00,72.0,63.0,28.82,North,0,0.0,0.0,74,0.00,,,0.00,,2013-06-30 00:52:00,
2013-06-29 21:01:00,72.0,63.0,28.82,North,0,0.0,0.0,74,0.00,,,0.00,,2013-06-30 01:01:00,
2013-06-29 21:33:00,70.0,63.0,28.82,North,0,0.0,0.0,78,0.00,,,0.00,,2013-06-30 01:33:00,
2013-06-29 21:44:00,68.0,62.0,28.85,North,0,0.0,0.0,81,0.00,,,0.00,,2013-06-30 01:44:00,
2013-06-29 21:53:00,68.0,62.0,28.85,North,0,0.0,0.0,81,0.00,,,0.00,,2013-06-30 01:53:00,
2013-06-29 22:02:00,67.0,62.0,28.85,North,0,0.0,0.0,85,0.00,,,0.00,,2013-06-30 02:02:00,
2013-06-29 22:11:00,66.0,62.0,28.85,North,0,0.0,0.0,87,0.00,,,0.00,,2013-06-30 02:11:00,
2013-06-29 22:23:00,66.0,62.0,28.85,North,0,0.0,0.0,88,0.00,,,0.00,,2013-06-30 02:23:00,
2013-06-29 22:34:00,65.0,62.0,28.85,North,0,0.0,0.0,90,0.00,,,0.00,,2013-06-30 02:34:00,
2013-06-29 22:43:00,65.0,62.0,28.88,North,0,0.0,0.0,90,0.00,,,0.00,,2013-06-30 02:43:00,
2013-06-29 22:53:00,65.0,62.0,28.88,North,0,0.0,0.0,90,0.00,,,0.00,,2013-06-30 02:53:00,
2013-06-29 23:01:00,65.0,62.0,28.88,North,0,0.0,0.0,90,0.00,,,0.00,,2013-06-30 03:01:00,
2013-06-29 23:12:00,65.0,62.0,28.88,North,0,0.0,0.0,90,0.00,,,0.00,,2013-06-30 03:12:00,
2013-06-29 23:23:00,64.0,62.0,28.88,North,0,0.0,0.0,93,0.00,,,0.00,,2013-06-30 03:23:00,
2013-06-29 23:33:00,64.0,62.0,28.88,North,0,0.0,0.0,94,0.00,,,0.00,,2013-06-30 03:33:00,
2013-06-29 23:43:00,64.0,62.0,28.88,North,0,0.0,0.0,94,0.00,,,0.00,,2013-06-30 03:43:00,
2013-06-29 23:53:00,63.0,62.0,28.88,North,0,0.0,0.0,95,0.00,,,0.00,,2013-06-30 03:53:00,